Wind_Speed
35 35 34 34 34 34 34 33 32 31 31 30 30 30 30 30 30 30 30 30 30 29 28 28 27 26 26 26 25 25 25 25 25 24 24 24 23 23 22 22 23 22 22
37 37 36 35 35 35 35 34 33 33 33 32 32 32 32 32 32 31 31 32 32 31 30 30 29 29 29 28 28 27 27 27 27 26 26 25 25 25 25 24 24 24 24
39 39 38 37 37 37 36 35 35 35 34 34 34 34 34 34 33 33 33 34 33 33 33 32 32 31 31 30 29 29 29 28 28 28 27 27 27 27 27 27 26 26 26
41 40 40 39 39 39 38 38 38 37 36 36 36 36 36 36 36 35 36 36 36 35 35 35 34 33 33 32 32 31 31 31 31 30 29 29 29 28 28 28 28 27 27
43 43 42 41 40 40 40 40 40 39 38 38 38 38 38 37 38 38 38 39 39 38 38 37 36 36 35 34 34 34 33 33 33 32 31 31 30 29 29 30 30 30 29
45 45 44 43 42 42 41 41 42 41 40 40 40 40 40 40 40 40 41 41 42 42 41 39 39 38 37 37 37 36 35 35 34 34 33 33 33 32 32 32 32 32 31
46 46 46 45 44 44 44 44 44 43 42 42 42 43 42 42 41 42 42 43 44 44 43 42 42 41 40 39 39 38 37 37 36 36 35 35 36 36 35 35 35 34 34
48 48 47 47 46 45 45 46 46 45 45 44 44 44 44 44 43 43 44 45 45 45 45 44 43 43 42 42 41 40 40 40 39 39 38 38 38 38 37 37 37 37 36
51 49 48 48 47 47 47 47 47 47 47 46 46 46 47 47 46 45 46 45 45 45 44 44 45 45 44 44 43 42 42 42 42 42 41 41 40 40 39 39 38 38 38
52 52 51 50 49 49 49 49 48 49 49 48 48 48 49 49 48 48 47 46 45 45 45 46 46 44 45 44 44 45 44 44 44 44 44 44 43 43 43 42 42 41 41
53 53 53 52 50 50 50 51 50 51 51 51 50 50 50 50 49 48 47 47 46 46 46 46 46 46 46 46 47 47 47 46 46 46 45 45 45 45 45 45 45 43 43
52 52 53 52 51 51 50 51 52 52 51 52 52 52 51 49 49 48 48 47 47 47 47 48 48 47 47 48 48 48 48 48 48 47 47 47 46 46 46 46 47 46 45
52 53 53 53 52 52 52 52 52 52 52 53 53 52 52 51 50 50 50 49 49 49 48 48 49 49 49 49 49 48 48 49 49 48 48 48 48 47 47 47 48 47 47
52 53 53 53 53 52 53 52 52 54 53 53 53 53 53 53 52 52 52 52 51 50 49 49 49 49 50 50 49 50 49 50 50 49 50 49 49 49 48 48 48 48 48
52 53 54 54 54 54 55 54 53 54 54 54 54 54 54 54 53 52 53 53 53 52 50 50 50 50 51 51 51 51 51 50 50 50 50 50 50 49 49 49 49 49 49
52 54 54 55 55 56 56 57 56 56 55 55 55 55 55 55 53 53 54 54 53 53 53 51 51 51 52 52 52 51 51 51 50 50 50 51 51 50 50 50 49 50 50
52 53 54 55 56 56 57 57 58 58 57 56 55 55 55 55 54 54 55 56 55 55 55 53 53 53 53 53 53 53 52 51 51 52 52 52 51 51 51 50 50 50 50
51 52 53 53 55 56 57 57 58 58 57 57 56 56 56 56 56 55 56 57 57 57 57 56 55 55 54 54 53 53 53 53 53 52 52 52 52 52 52 51 51 51 51
51 52 53 53 53 54 56 57 58 58 57 57 57 57 56 57 57 57 57 59 59 58 58 58 56 56 55 55 55 55 55 54 54 53 53 53 53 53 53 53 52 51 51
51 51 52 53 53 54 55 56 57 58 58 59 58 58 58 58 57 58 59 59 59 58 58 58 57 56 56 56 56 55 55 55 54 54 55 54 54 54 54 53 53 52 52
51 52 53 52 52 53 54 55 56 57 58 58 58 58 58 59 59 59 59 58 58 58 58 59 58 57 56 56 56 56 56 56 56 56 56 55 55 55 54 54 53 54 54
50 52 53 53 53 53 53 54 56 57 58 57 56 56 57 58 59 59 59 58 58 58 58 58 58 57 57 56 56 56 56 57 56 57 57 56 56 56 55 54 54 55 55
48 50 52 53 53 53 54 54 55 55 56 56 56 55 56 56 57 58 58 58 58 58 58 57 57 56 57 57 57 57 57 57 56 56 57 56 57 57 56 56 56 56 55
45 47 49 51 52 53 52 53 54 54 54 54 54 54 55 55 56 56 56 57 56 56 57 57 56 56 56 57 57 57 57 57 56 56 57 57 57 57 57 56 56 57 57
45 45 47 48 49 50 51 51 51 51 52 52 52 51 52 53 54 54 55 55 55 55 56 56 57 56 56 57 57 57 57 56 56 56 57 57 57 57 57 56 57 58 58
43 44 45 46 47 48 49 49 48 49 49 49 50 51 51 52 52 53 53 54 53 54 55 55 56 56 55 56 56 56 56 56 56 55 56 56 56 56 56 55 56 57 58
Wind_Direction
247 246 246 247 246 244 244 245 246 247 247 248 249 249 250 251 252 253 253 254 256 256 257 257 258 259 260 261 261 262 263 263 264 265 267 267 268 268 269 270 270 270 271
247 247 247 247 246 245 244 245 246 248 250 249 249 250 250 252 253 253 254 254 255 255 256 257 258 258 259 259 260 262 264 265 265 266 267 266 266 268 269 270 269 269 270
247 247 246 247 246 245 246 246 247 248 249 250 250 251 251 252 253 254 254 254 254 255 256 256 257 258 259 259 260 261 262 263 264 265 266 265 266 267 268 268 269 270 271
246 246 246 248 247 246 247 248 248 248 249 250 251 253 253 253 254 254 255 254 254 255 256 256 256 257 258 259 260 261 262 263 264 265 265 266 267 267 268 269 270 271 272
246 246 246 247 247 247 248 249 249 250 251 252 252 253 254 254 255 256 256 255 255 256 256 256 256 257 257 258 259 260 261 263 263 264 265 265 266 266 268 270 270 271 272
246 246 246 247 247 247 248 250 251 252 252 253 253 253 255 255 257 257 257 257 256 256 255 255 256 257 257 258 259 260 261 262 262 263 264 264 264 265 267 269 271 271 272
247 247 247 248 248 248 248 251 251 252 253 254 254 254 256 256 257 258 257 257 257 257 256 255 256 257 257 257 258 259 260 260 261 263 263 264 265 265 267 268 269 270 271
248 249 249 249 250 249 249 251 252 253 253 254 255 256 256 256 258 259 259 259 258 257 256 255 255 256 256 257 257 258 259 260 262 263 264 265 265 265 266 268 268 269 271
248 248 249 249 250 250 250 251 253 253 254 256 256 257 257 257 259 260 259 258 257 257 256 256 256 256 256 257 258 259 260 260 261 262 263 265 265 266 266 268 268 269 271
250 250 250 251 251 251 251 251 252 255 256 257 257 258 259 259 260 261 259 257 256 256 257 257 257 257 258 259 259 259 259 260 261 263 264 265 266 267 267 267 268 270 270
250 251 252 251 251 251 252 252 253 255 256 257 257 258 260 260 260 259 257 256 257 256 256 256 257 258 258 260 260 261 261 261 262 263 264 265 266 266 267 268 269 269 269
250 251 251 252 252 252 252 252 253 254 255 257 257 258 259 259 258 257 256 256 257 257 257 257 258 259 259 260 260 260 261 262 263 264 264 265 265 266 267 267 267 267 268
251 251 251 252 252 253 253 253 253 254 255 257 257 258 259 258 257 257 255 256 256 257 258 258 258 259 259 259 259 259 260 262 262 263 264 264 265 265 266 266 266 266 267
252 252 252 253 253 254 254 253 253 255 256 257 257 257 258 258 258 257 255 256 257 256 257 258 258 259 259 259 260 260 260 261 262 263 264 265 265 265 265 266 266 267 267
252 253 253 253 253 254 255 255 255 255 256 257 257 257 257 258 258 256 255 256 257 256 257 257 257 258 259 260 260 261 260 261 262 263 264 264 265 265 265 265 265 267 268
253 254 254 253 253 254 254 254 255 255 256 257 258 258 258 257 256 256 255 256 257 258 258 258 257 257 258 259 260 260 261 262 263 263 263 263 264 265 265 265 266 267 268
254 255 255 254 254 254 254 254 255 255 256 256 257 257 257 257 256 256 256 256 258 259 259 259 258 258 258 259 261 261 261 263 263 263 262 262 263 265 265 266 267 267 268
254 255 255 256 255 255 256 255 255 255 256 256 256 256 257 256 255 256 256 257 258 259 259 259 259 259 259 260 261 262 262 262 263 263 263 263 263 263 264 265 267 267 268
255 255 256 256 256 255 256 256 255 255 255 255 255 255 256 255 255 256 256 256 257 259 259 259 259 259 260 260 261 262 262 262 263 263 263 264 264 264 264 265 267 267 268
255 256 256 256 256 256 256 256 255 254 254 254 255 255 255 255 255 256 257 256 257 258 258 258 259 260 260 260 261 261 261 262 263 263 264 264 264 264 265 266 267 267 267
257 256 256 256 256 257 257 257 255 255 255 255 255 255 255 255 255 256 257 257 257 257 258 258 259 259 260 260 261 261 261 262 263 263 264 265 265 265 266 267 267 267 268
258 257 256 257 257 258 258 258 257 256 255 254 255 255 255 254 255 256 255 256 257 257 257 258 259 260 259 260 260 260 261 262 262 262 263 264 265 266 267 267 267 268 269
259 258 258 258 258 258 258 258 258 257 256 255 255 255 255 254 254 254 255 256 257 257 257 258 258 259 259 258 259 260 261 262 262 262 263 264 265 266 267 267 268 268 269
260 260 259 258 257 257 257 257 257 257 257 256 256 256 256 255 254 255 255 256 257 257 256 257 258 258 258 258 258 259 261 262 262 263 264 264 265 266 266 267 268 268 268
261 261 261 260 258 257 257 258 258 256 256 255 255 256 256 255 255 255 255 256 256 256 256 256 258 258 258 258 259 260 260 261 262 263 264 264 265 265 265 267 268 268 269
263 262 262 260 258 257 258 258 256 255 255 256 256 256 256 256 256 255 255 256 256 256 256 256 257 258 258 259 260 261 262 262 263 264 265 265 265 266 266 266 267 267 267
Height
5787 5789 5791 5793 5794 5796 5798 5799 5801 5803 5804 5806 5808 5809 5810 5811 5813 5814 5815 5816 5816 5817 5818 5818 5819 5820 5820 5821 5821 5822 5822 5823 5823 5823 5824 5824 5824 5824 5824 5824 5824 5823 5823
5779 5781 5783 5785 5787 5789 5790 5792 5794 5796 5797 5799 5800 5802 5803 5804 5806 5807 5808 5809 5810 5811 5811 5812 5813 5814 5814 5815 5815 5816 5816 5817 5817 5818 5818 5818 5818 5819 5819 5819 5818 5818 5818
5771 5773 5775 5777 5779 5781 5783 5785 5786 5788 5790 5791 5793 5794 5796 5797 5798 5799 5800 5802 5803 5803 5804 5805 5806 5807 5807 5808 5809 5809 5810 5811 5811 5812 5812 5812 5813 5813 5813 5813 5813 5813 5812
5762 5764 5766 5768 5770 5772 5775 5777 5778 5780 5781 5783 5785 5787 5788 5789 5790 5791 5792 5794 5794 5795 5796 5797 5798 5799 5800 5801 5802 5803 5803 5804 5805 5805 5806 5806 5806 5806 5806 5806 5806 5806 5806
5752 5755 5757 5759 5761 5763 5765 5768 5769 5771 5773 5775 5776 5778 5779 5780 5782 5783 5784 5785 5786 5787 5788 5789 5790 5791 5792 5793 5794 5795 5796 5797 5797 5798 5799 5799 5799 5799 5800 5800 5800 5799 5799
5742 5745 5747 5749 5752 5754 5756 5758 5760 5762 5764 5766 5767 5769 5770 5771 5772 5773 5774 5775 5776 5777 5778 5780 5781 5782 5784 5785 5786 5787 5788 5789 5789 5790 5791 5791 5792 5792 5792 5792 5792 5792 5792
5731 5734 5737 5739 5742 5744 5746 5748 5750 5752 5754 5756 5757 5759 5760 5761 5762 5763 5764 5765 5766 5767 5768 5769 5771 5773 5774 5775 5777 5778 5779 5780 5781 5782 5783 5783 5783 5784 5784 5784 5784 5784 5784
5720 5723 5726 5728 5731 5733 5735 5738 5740 5742 5744 5745 5747 5748 5750 5752 5752 5753 5753 5754 5755 5755 5757 5758 5760 5762 5764 5766 5767 5768 5769 5771 5772 5773 5774 5774 5774 5775 5775 5775 5775 5775 5775
5708 5711 5714 5716 5719 5722 5724 5727 5729 5731 5733 5734 5736 5738 5739 5740 5742 5743 5743 5743 5744 5744 5746 5748 5750 5751 5753 5755 5757 5758 5759 5760 5762 5763 5764 5765 5765 5765 5766 5766 5766 5766 5766
5695 5698 5701 5704 5707 5710 5713 5715 5717 5719 5721 5723 5724 5726 5727 5729 5730 5731 5732 5733 5734 5735 5736 5738 5739 5741 5743 5744 5746 5748 5749 5750 5751 5752 5753 5754 5755 5755 5755 5756 5756 5756 5756
5683 5686 5689 5691 5694 5697 5700 5703 5705 5707 5709 5711 5712 5714 5714 5716 5717 5718 5721 5722 5723 5724 5726 5727 5729 5730 5732 5734 5735 5737 5738 5739 5740 5741 5742 5743 5743 5744 5744 5745 5745 5745 5745
5670 5673 5676 5678 5681 5684 5687 5690 5692 5694 5696 5698 5700 5701 5702 5704 5705 5706 5708 5710 5712 5713 5715 5716 5718 5719 5721 5722 5723 5725 5726 5728 5729 5730 5731 5731 5732 5732 5733 5733 5733 5733 5734
5657 5660 5663 5666 5668 5671 5674 5676 5678 5680 5683 5684 5686 5688 5689 5691 5692 5694 5696 5698 5699 5701 5703 5704 5706 5707 5709 5710 5712 5713 5714 5716 5717 5718 5719 5719 5720 5721 5721 5721 5721 5721 5721
5645 5647 5650 5652 5655 5657 5660 5662 5664 5667 5669 5671 5672 5674 5676 5678 5679 5681 5683 5685 5687 5689 5691 5692 5693 5695 5696 5698 5699 5700 5702 5703 5704 5705 5706 5707 5708 5708 5708 5709 5709 5709 5709
5632 5634 5636 5639 5641 5643 5645 5648 5650 5652 5654 5656 5658 5660 5662 5664 5666 5668 5670 5671 5674 5676 5679 5680 5681 5682 5683 5685 5686 5687 5689 5690 5692 5693 5693 5694 5695 5695 5695 5696 5696 5696 5696
5618 5620 5622 5625 5627 5629 5631 5633 5636 5638 5640 5642 5644 5646 5648 5650 5652 5654 5656 5658 5660 5662 5665 5668 5668 5669 5670 5671 5673 5674 5676 5677 5678 5679 5680 5680 5681 5682 5682 5682 5683 5683 5683
5604 5606 5608 5610 5612 5614 5616 5618 5621 5623 5625 5627 5629 5631 5633 5635 5637 5640 5641 5643 5645 5647 5650 5653 5654 5656 5657 5658 5659 5661 5663 5663 5664 5665 5666 5667 5667 5668 5668 5668 5669 5669 5669
5590 5592 5594 5596 5597 5599 5601 5603 5605 5607 5610 5612 5614 5617 5619 5620 5623 5625 5627 5629 5631 5633 5635 5638 5640 5642 5643 5644 5646 5647 5648 5649 5650 5651 5652 5652 5653 5654 5654 5654 5655 5655 5655
5576 5578 5580 5581 5583 5584 5586 5588 5590 5592 5594 5597 5599 5601 5604 5606 5608 5610 5612 5614 5616 5618 5620 5623 5625 5627 5628 5629 5631 5632 5633 5635 5635 5636 5637 5638 5639 5639 5640 5640 5640 5640 5641
5562 5564 5565 5567 5568 5570 5571 5572 5574 5576 5578 5581 5583 5585 5588 5590 5592 5594 5597 5599 5601 5603 5605 5607 5610 5612 5614 5615 5616 5618 5619 5620 5621 5622 5622 5623 5624 5624 5625 5626 5626 5626 5626
5547 5549 5550 5552 5553 5555 5556 5557 5559 5560 5562 5565 5567 5569 5572 5574 5576 5578 5581 5583 5586 5588 5590 5592 5594 5597 5599 5600 5601 5602 5603 5605 5606 5607 5608 5609 5609 5610 5610 5611 5611 5610 5610
5532 5534 5535 5537 5538 5540 5541 5542 5543 5545 5547 5549 5551 5553 5556 5558 5560 5562 5565 5568 5570 5572 5575 5576 5579 5581 5583 5585 5585 5586 5588 5590 5592 5593 5592 5594 5593 5594 5595 5596 5595 5595 5595
5518 5519 5521 5522 5524 5525 5526 5527 5528 5529 5531 5534 5536 5538 5540 5542 5544 5546 5549 5551 5554 5556 5559 5561 5563 5565 5567 5569 5570 5571 5572 5573 5575 5576 5576 5578 5578 5579 5579 5579 5579 5580 5580
5505 5505 5506 5507 5508 5509 5510 5511 5512 5514 5516 5518 5520 5523 5524 5526 5528 5530 5533 5536 5538 5541 5543 5545 5548 5550 5551 5552 5553 5555 5556 5557 5559 5560 5560 5562 5563 5563 5563 5563 5564 5563 5564
5491 5492 5492 5493 5494 5495 5496 5497 5497 5499 5502 5504 5506 5507 5509 5512 5514 5515 5518 5521 5524 5525 5527 5529 5531 5533 5535 5536 5537 5538 5540 5541 5543 5545 5545 5545 5547 5547 5548 5548 5548 5547 5547
5478 5479 5479 5479 5480 5481 5482 5482 5483 5486 5488 5490 5492 5494 5495 5497 5499 5500 5503 5506 5508 5510 5512 5514 5516 5517 5519 5520 5521 5523 5524 5526 5527 5529 5529 5529 5530 5530 5532 5533 5532 5531 5530